Time,TemperatureF,DewpointF,PressureIn,WindDirection,WindDirectionDegrees,WindSpeedMPH,WindSpeedGustMPH,Humidity,HourlyPrecipIn,Conditions,Clouds,dailyrainin,SoftwareType,DateUTC
2013-07-23 00:00:00,63.3,55.0,29.92,NNW,329,4.4,8.0,74,0.00,,,0.00,CWS Microserver 1.4,2013-07-23 05:00:00,
2013-07-23 00:05:00,63.3,55.1,29.92,NW,310,5.4,8.0,74,0.00,,,0.00,CWS Microserver 1.4,2013-07-23 05:05:00,
2013-07-23 00:10:00,63.3,55.0,29.92,NNW,336,5.1,7.8,74,0.00,,,0.00,CWS Microserver 1.4,2013-07-23 05:10:00,
2013-07-23 00:15:00,63.5,55.0,29.92,NNW,339,7.7,8.5,73,0.00,,,0.00,CWS Microserver 1.4,2013-07-23 05:15:00,
2013-07-23 00:20:00,63.5,55.0,29.91,NNW,333,2.3,8.5,73,0.00,,,0.00,CWS Microserver 1.4,2013-07-23 05:20:00,
2013-07-23 00:25:00,62.9,54.7,29.92,NW,318,6.1,8.4,74,0.00,,,0.00,CWS Microserver 1.4,2013-07-23 05:25:00,
2013-07-23 00:30:00,62.6,54.6,29.92,NW,324,5.3,8.8,75,0.00,,,0.00,CWS Microserver 1.4,2013-07-23 05:30:00,
2013-07-23 00:35:00,62.6,54.4,29.91,NNW,328,7.5,8.8,74,0.00,,,0.00,CWS Microserver 1.4,2013-07-23 05:35:00,
2013-07-23 00:40:00,62.4,54.5,29.91,NNW,332,6.7,8.2,75,0.00,,,0.00,CWS Microserver 1.4,2013-07-23 05:40:00,
2013-07-23 00:45:00,62.2,54.4,29.91,NNW,330,7.3,8.1,75,0.00,,,0.00,CWS Microserver 1.4,2013-07-23 05:45:00,
2013-07-23 00:50:00,62.0,54.4,29.90,NW,325,6.3,8.5,76,0.00,,,0.00,CWS Microserver 1.4,2013-07-23 05:50:00,
2013-07-23 00:55:00,61.7,54.3,29.90,NNW,337,5.1,8.5,76,0.00,,,0.00,CWS Microserver 1.4,2013-07-23 05:55:00,
2013-07-23 01:00:00,61.3,54.2,29.90,NW,324,7.4,8.6,77,0.00,,,0.00,CWS Microserver 1.4,2013-07-23 06:00:00,
2013-07-23 01:05:00,61.1,54.3,29.90,NW,321,6.7,8.6,78,0.00,,,0.00,CWS Microserver 1.4,2013-07-23 06:05:00,
2013-07-23 01:10:00,60.9,54.3,29.90,NW,322,5.4,10.2,78,0.00,,,0.00,CWS Microserver 1.4,2013-07-23 06:10:00,
2013-07-23 01:15:00,60.8,54.2,29.90,NW,320,6.2,10.2,79,0.00,,,0.00,CWS Microserver 1.4,2013-07-23 06:15:00,
2013-07-23 01:20:00,60.6,54.2,29.90,NW,319,5.9,8.1,79,0.00,,,0.00,CWS Microserver 1.4,2013-07-23 06:20:00,
2013-07-23 01:25:00,60.2,54.1,29.90,NNW,341,6.4,7.8,80,0.00,,,0.00,CWS Microserver 1.4,2013-07-23 06:25:00,
2013-07-23 01:30:00,60.2,54.1,29.90,NW,324,5.4,7.7,80,0.00,,,0.00,CWS Microserver 1.4,2013-07-23 06:30:00,
2013-07-23 01:35:00,59.9,53.9,29.91,NW,326,5.1,7.7,80,0.00,,,0.00,CWS Microserver 1.4,2013-07-23 06:35:00,
2013-07-23 01:40:00,59.7,53.8,29.92,NW,315,5.1,7.4,81,0.00,,,0.00,CWS Microserver 1.4,2013-07-23 06:40:00,
2013-07-23 01:45:00,59.9,54.0,29.91,NNW,339,4.1,6.6,80,0.00,,,0.00,CWS Microserver 1.4,2013-07-23 06:45:00,
2013-07-23 01:50:00,59.9,53.8,29.91,NW,313,3.1,6.3,80,0.00,,,0.00,CWS Microserver 1.4,2013-07-23 06:50:00,
2013-07-23 01:55:00,59.5,53.6,29.91,NW,312,3.9,5.4,81,0.00,,,0.00,CWS Microserver 1.4,2013-07-23 06:55:00,
2013-07-23 02:00:00,59.5,53.3,29.91,NW,318,6.2,8.5,80,0.00,,,0.00,CWS Microserver 1.4,2013-07-23 07:00:00,
2013-07-23 02:05:00,59.5,53.4,29.91,WNW,299,5.8,8.5,80,0.00,,,0.00,CWS Microserver 1.4,2013-07-23 07:05:00,
2013-07-23 02:10:00,59.5,53.2,29.91,NW,324,6.4,7.5,79,0.00,,,0.00,CWS Microserver 1.4,2013-07-23 07:10:00,
2013-07-23 02:15:00,59.5,53.0,29.91,NW,321,6.8,8.2,79,0.00,,,0.00,CWS Microserver 1.4,2013-07-23 07:15:00,
2013-07-23 02:20:00,59.0,52.9,29.91,NW,315,5.7,8.2,80,0.00,,,0.00,CWS Microserver 1.4,2013-07-23 07:20:00,
2013-07-23 02:25:00,59.0,53.0,29.91,NW,326,6.0,9.5,80,0.00,,,0.00,CWS Microserver 1.4,2013-07-23 07:25:00,
2013-07-23 02:30:00,59.1,53.0,29.92,NW,308,5.0,9.5,80,0.00,,,0.00,CWS Microserver 1.4,2013-07-23 07:30:00,
2013-07-23 02:35:00,59.1,53.0,29.92,NW,318,5.8,8.5,80,0.00,,,0.00,CWS Microserver 1.4,2013-07-23 07:35:00,
2013-07-23 02:40:00,59.1,52.9,29.92,NW,312,7.2,8.1,79,0.00,,,0.00,CWS Microserver 1.4,2013-07-23 07:40:00,
2013-07-23 02:45:00,59.1,52.8,29.92,NW,324,5.5,8.9,79,0.00,,,0.00,CWS Microserver 1.4,2013-07-23 07:45:00,
2013-07-23 02:50:00,59.1,52.8,29.93,NW,312,6.1,11.6,79,0.00,,,0.00,CWS Microserver 1.4,2013-07-23 07:50:00,
2013-07-23 02:55:00,58.8,52.7,29.92,NW,315,5.4,11.6,80,0.00,,,0.00,CWS Microserver 1.4,2013-07-23 07:55:00,
2013-07-23 03:00:00,59.0,52.9,29.93,NW,304,5.3,7.7,80,0.00,,,0.00,CWS Microserver 1.4,2013-07-23 08:00:00,
2013-07-23 03:05:00,59.0,52.8,29.93,NW,308,7.6,7.8,79,0.00,,,0.00,CWS Microserver 1.4,2013-07-23 08:05:00,
2013-07-23 03:10:00,59.3,52.8,29.93,NW,310,6.3,9.1,79,0.00,,,0.00,CWS Microserver 1.4,2013-07-23 08:10:00,
2013-07-23 03:15:00,59.1,52.6,29.93,NW,323,5.7,9.1,79,0.00,,,0.00,CWS Microserver 1.4,2013-07-23 08:15:00,
2013-07-23 03:20:00,59.0,52.7,29.93,NW,319,6.1,9.0,79,0.00,,,0.00,CWS Microserver 1.4,2013-07-23 08:20:00,
2013-07-23 03:25:00,58.8,52.7,29.94,NW,309,3.3,9.0,80,0.00,,,0.00,CWS Microserver 1.4,2013-07-23 08:25:00,
2013-07-23 03:30:00,58.2,52.4,29.93,NW,315,5.6,8.3,81,0.00,,,0.00,CWS Microserver 1.4,2013-07-23 08:30:00,
2013-07-23 03:35:00,58.2,52.4,29.94,NW,313,6.5,8.3,81,0.00,,,0.00,CWS Microserver 1.4,2013-07-23 08:35:00,
2013-07-23 03:40:00,58.1,52.4,29.93,NW,324,6.2,7.9,81,0.00,,,0.00,CWS Microserver 1.4,2013-07-23 08:40:00,
2013-07-23 03:45:00,57.9,52.4,29.93,NW,322,5.1,8.0,81,0.00,,,0.00,CWS Microserver 1.4,2013-07-23 08:45:00,
2013-07-23 03:50:00,57.7,52.4,29.94,NW,312,7.6,8.6,82,0.00,,,0.00,CWS Microserver 1.4,2013-07-23 08:50:00,
2013-07-23 03:55:00,57.9,52.4,29.94,NW,321,6.3,9.7,82,0.00,,,0.00,CWS Microserver 1.4,2013-07-23 08:55:00,
2013-07-23 04:00:00,57.9,52.5,29.95,NW,309,7.2,9.7,82,0.00,,,0.00,CWS Microserver 1.4,2013-07-23 09:00:00,
2013-07-23 04:05:00,58.4,52.8,29.96,WNW,300,6.2,9.4,81,0.00,,,0.00,CWS Microserver 1.4,2013-07-23 09:05:00,
2013-07-23 04:10:00,58.8,52.8,29.96,NW,310,8.8,10.4,80,0.00,,,0.00,CWS Microserver 1.4,2013-07-23 09:10:00,
2013-07-23 04:15:00,58.6,52.7,29.97,NW,305,5.3,10.4,80,0.00,,,0.00,CWS Microserver 1.4,2013-07-23 09:15:00,
2013-07-23 04:20:00,58.4,52.7,29.97,NW,311,7.3,9.4,81,0.00,,,0.00,CWS Microserver 1.4,2013-07-23 09:20:00,
2013-07-23 04:25:00,58.2,52.6,29.97,NW,310,7.6,9.3,81,0.00,,,0.00,CWS Microserver 1.4,2013-07-23 09:25:00,
2013-07-23 04:30:00,58.1,52.7,29.96,NW,314,6.5,9.3,82,0.00,,,0.00,CWS Microserver 1.4,2013-07-23 09:30:00,
2013-07-23 04:35:00,57.9,52.7,29.96,NW,311,6.3,8.6,82,0.00,,,0.00,CWS Microserver 1.4,2013-07-23 09:35:00,
2013-07-23 04:40:00,57.7,52.7,29.96,NW,313,5.9,8.3,83,0.00,,,0.00,CWS Microserver 1.4,2013-07-23 09:40:00,
2013-07-23 04:45:00,57.7,52.6,29.96,NW,316,6.8,8.3,83,0.00,,,0.00,CWS Microserver 1.4,2013-07-23 09:45:00,
2013-07-23 04:50:00,57.7,52.6,29.95,NW,321,6.8,8.7,83,0.00,,,0.00,CWS Microserver 1.4,2013-07-23 09:50:00,
2013-07-23 04:55:00,57.7,52.6,29.95,NNW,333,6.0,10.3,83,0.00,,,0.00,CWS Microserver 1.4,2013-07-23 09:55:00,
2013-07-23 05:00:00,57.5,52.6,29.95,NW,316,6.2,10.3,83,0.00,,,0.00,CWS Microserver 1.4,2013-07-23 10:00:00,
2013-07-23 05:05:00,57.3,52.5,29.95,NW,320,2.7,8.0,83,0.00,,,0.00,CWS Microserver 1.4,2013-07-23 10:05:00,
2013-07-23 05:10:00,57.3,52.4,29.95,NW,325,5.2,9.3,83,0.00,,,0.00,CWS Microserver 1.4,2013-07-23 10:10:00,
2013-07-23 05:15:00,57.2,52.4,29.95,NNW,329,5.5,9.3,84,0.00,,,0.00,CWS Microserver 1.4,2013-07-23 10:15:00,
2013-07-23 05:20:00,57.0,52.2,29.95,NW,316,3.3,8.2,84,0.00,,,0.00,CWS Microserver 1.4,2013-07-23 10:20:00,
2013-07-23 05:25:00,57.2,52.3,29.95,NNW,333,6.5,11.5,83,0.00,,,0.00,CWS Microserver 1.4,2013-07-23 10:25:00,
2013-07-23 05:30:00,57.3,52.2,29.95,North,353,6.7,11.5,83,0.00,,,0.00,CWS Microserver 1.4,2013-07-23 10:30:00,
2013-07-23 05:35:00,57.3,52.2,29.95,NNW,327,5.8,8.1,83,0.00,,,0.00,CWS Microserver 1.4,2013-07-23 10:35:00,
2013-07-23 05:40:00,57.2,52.2,29.95,NW,305,7.3,7.6,83,0.00,,,0.00,CWS Microserver 1.4,2013-07-23 10:40:00,
2013-07-23 05:45:00,57.2,52.1,29.95,NNW,342,3.2,7.6,83,0.00,,,0.00,CWS Microserver 1.4,2013-07-23 10:45:00,
2013-07-23 05:50:00,57.0,52.0,29.95,NW,320,6.5,8.0,83,0.00,,,0.00,CWS Microserver 1.4,2013-07-23 10:50:00,
2013-07-23 05:55:00,56.8,51.9,29.95,NNW,345,5.6,8.9,83,0.00,,,0.00,CWS Microserver 1.4,2013-07-23 10:55:00,
2013-07-23 06:00:00,57.0,52.0,29.95,North,350,6.5,8.9,83,0.00,,,0.00,CWS Microserver 1.4,2013-07-23 11:00:00,
2013-07-23 06:05:00,57.3,52.1,29.95,North,2,4.4,9.6,82,0.00,,,0.00,CWS Microserver 1.4,2013-07-23 11:05:00,
2013-07-23 06:15:00,57.5,52.2,29.96,NNW,329,4.4,9.3,82,0.00,,,0.00,CWS Microserver 1.4,2013-07-23 11:15:00,
2013-07-23 06:20:00,57.7,52.3,29.96,NNW,327,5.5,9.9,82,0.00,,,0.00,CWS Microserver 1.4,2013-07-23 11:20:00,
2013-07-23 06:25:00,57.7,52.4,29.97,NNW,332,5.1,9.9,82,0.00,,,0.00,CWS Microserver 1.4,2013-07-23 11:25:00,
2013-07-23 06:30:00,57.7,52.4,29.98,North,352,6.0,9.5,82,0.00,,,0.00,CWS Microserver 1.4,2013-07-23 11:30:00,
2013-07-23 06:40:00,58.1,52.8,29.98,NNW,329,6.9,11.4,82,0.00,,,0.00,CWS Microserver 1.4,2013-07-23 11:40:00,
2013-07-23 06:45:00,57.9,52.7,29.99,NW,319,6.4,11.3,82,0.00,,,0.00,CWS Microserver 1.4,2013-07-23 11:45:00,
2013-07-23 06:50:00,57.9,52.8,29.99,NW,323,6.3,11.3,83,0.00,,,0.00,CWS Microserver 1.4,2013-07-23 11:50:00,
2013-07-23 06:55:00,57.7,52.6,29.99,NW,318,5.6,10.5,83,0.00,,,0.00,CWS Microserver 1.4,2013-07-23 11:55:00,
2013-07-23 07:00:00,57.7,52.8,30.00,NW,325,6.7,9.8,83,0.00,,,0.00,CWS Microserver 1.4,2013-07-23 12:00:00,
2013-07-23 07:05:00,57.9,53.0,30.00,NW,308,6.7,9.6,83,0.00,,,0.00,CWS Microserver 1.4,2013-07-23 12:05:00,
2013-07-23 07:10:00,58.1,53.1,30.00,NW,316,7.0,9.6,83,0.00,,,0.00,CWS Microserver 1.4,2013-07-23 12:10:00,
2013-07-23 07:15:00,58.2,53.3,30.00,NW,321,7.0,9.1,83,0.00,,,0.00,CWS Microserver 1.4,2013-07-23 12:15:00,
2013-07-23 07:20:00,58.2,53.2,29.99,NNW,342,5.2,9.1,83,0.00,,,0.00,CWS Microserver 1.4,2013-07-23 12:20:00,
2013-07-23 07:25:00,58.2,53.3,29.99,North,357,5.5,8.8,83,0.00,,,0.00,CWS Microserver 1.4,2013-07-23 12:25:00,
2013-07-23 07:30:00,58.4,53.5,29.99,NNW,340,4.8,8.8,83,0.00,,,0.00,CWS Microserver 1.4,2013-07-23 12:30:00,
2013-07-23 07:40:00,58.8,53.4,29.99,NNW,331,4.7,7.2,82,0.00,,,0.00,CWS Microserver 1.4,2013-07-23 12:40:00,
2013-07-23 07:45:00,59.5,53.1,29.99,NNE,23,7.1,7.5,79,0.00,,,0.00,CWS Microserver 1.4,2013-07-23 12:45:00,
2013-07-23 07:50:00,60.0,53.6,29.98,NNE,26,4.5,9.4,79,0.00,,,0.00,CWS Microserver 1.4,2013-07-23 12:50:00,
2013-07-23 07:55:00,60.4,53.7,29.98,NNE,14,8.7,11.3,78,0.00,,,0.00,CWS Microserver 1.4,2013-07-23 12:55:00,
2013-07-23 08:00:00,60.6,53.5,29.99,NNE,14,7.6,11.3,77,0.00,,,0.00,CWS Microserver 1.4,2013-07-23 13:00:00,
2013-07-23 08:05:00,60.6,53.5,29.99,NNE,19,9.3,11.7,77,0.00,,,0.00,CWS Microserver 1.4,2013-07-23 13:05:00,
2013-07-23 08:10:00,60.9,53.5,29.99,North,8,6.4,11.7,76,0.00,,,0.00,CWS Microserver 1.4,2013-07-23 13:10:00,
2013-07-23 08:15:00,61.5,53.4,30.00,NNE,21,5.8,11.0,74,0.00,,,0.00,CWS Microserver 1.4,2013-07-23 13:15:00,
2013-07-23 08:20:00,62.6,53.6,30.00,NNE,13,8.5,10.1,72,0.00,,,0.00,CWS Microserver 1.4,2013-07-23 13:20:00,
2013-07-23 08:25:00,62.0,53.2,30.00,North,8,6.8,11.5,73,0.00,,,0.00,CWS Microserver 1.4,2013-07-23 13:25:00,
2013-07-23 08:30:00,62.4,53.2,30.00,NNE,18,9.2,11.5,72,0.00,,,0.00,CWS Microserver 1.4,2013-07-23 13:30:00,
2013-07-23 08:35:00,62.6,53.6,29.99,NNE,32,4.2,13.3,72,0.00,,,0.00,CWS Microserver 1.4,2013-07-23 13:35:00,
2013-07-23 08:40:00,63.5,53.4,29.99,North,7,7.1,13.3,69,0.00,,,0.00,CWS Microserver 1.4,2013-07-23 13:40:00,
2013-07-23 08:45:00,63.3,53.6,29.99,North,11,7.4,11.3,70,0.00,,,0.00,CWS Microserver 1.4,2013-07-23 13:45:00,
2013-07-23 08:50:00,64.0,53.6,29.99,North,8,5.7,13.7,68,0.00,,,0.00,CWS Microserver 1.4,2013-07-23 13:50:00,
2013-07-23 08:55:00,63.8,54.0,29.99,North,7,11.5,13.7,70,0.00,,,0.00,CWS Microserver 1.4,2013-07-23 13:55:00,
2013-07-23 09:00:00,63.3,53.4,29.99,NE,37,10.0,13.6,70,0.00,,,0.00,CWS Microserver 1.4,2013-07-23 14:00:00,
2013-07-23 09:05:00,63.3,53.4,29.98,NNE,23,8.6,13.6,70,0.00,,,0.00,CWS Microserver 1.4,2013-07-23 14:05:00,
2013-07-23 09:10:00,63.5,53.4,29.98,NE,42,9.4,13.6,69,0.00,,,0.00,CWS Microserver 1.4,2013-07-23 14:10:00,
2013-07-23 09:15:00,63.1,53.6,29.98,NE,53,5.5,13.5,71,0.00,,,0.00,CWS Microserver 1.4,2013-07-23 14:15:00,
2013-07-23 09:20:00,63.5,53.9,29.98,ENE,58,7.8,13.5,71,0.00,,,0.00,CWS Microserver 1.4,2013-07-23 14:20:00,
2013-07-23 09:25:00,63.3,53.9,29.99,ENE,57,7.8,11.4,71,0.00,,,0.00,CWS Microserver 1.4,2013-07-23 14:25:00,
2013-07-23 09:30:00,63.5,53.4,29.99,NE,42,6.9,11.0,69,0.00,,,0.00,CWS Microserver 1.4,2013-07-23 14:30:00,
2013-07-23 09:35:00,64.0,54.3,30.00,NNE,27,8.4,10.7,70,0.00,,,0.00,CWS Microserver 1.4,2013-07-23 14:35:00,
2013-07-23 09:40:00,64.2,54.2,30.00,ENE,68,9.9,11.4,70,0.00,,,0.00,CWS Microserver 1.4,2013-07-23 14:40:00,
2013-07-23 09:45:00,64.5,54.3,30.01,NE,50,6.0,12.0,69,0.00,,,0.00,CWS Microserver 1.4,2013-07-23 14:45:00,
2013-07-23 09:50:00,65.3,54.0,30.01,NNE,22,7.4,12.0,67,0.00,,,0.00,CWS Microserver 1.4,2013-07-23 14:50:00,
2013-07-23 09:55:00,65.3,54.1,30.01,NNE,24,5.5,11.2,67,0.00,,,0.00,CWS Microserver 1.4,2013-07-23 14:55:00,
2013-07-23 10:00:00,64.7,53.0,30.01,NE,41,7.1,11.9,66,0.00,,,0.00,CWS Microserver 1.4,2013-07-23 15:00:00,
2013-07-23 10:05:00,64.7,53.8,30.01,NNE,30,5.8,11.9,67,0.00,,,0.00,CWS Microserver 1.4,2013-07-23 15:05:00,
2013-07-23 10:10:00,65.1,53.8,30.02,North,2,6.9,10.7,67,0.00,,,0.00,CWS Microserver 1.4,2013-07-23 15:10:00,
2013-07-23 10:15:00,66.0,54.5,30.02,NNE,20,8.7,10.1,66,0.00,,,0.00,CWS Microserver 1.4,2013-07-23 15:15:00,
2013-07-23 10:20:00,66.2,53.7,30.02,NNE,28,8.6,12.4,64,0.00,,,0.00,CWS Microserver 1.4,2013-07-23 15:20:00,
2013-07-23 10:25:00,65.6,53.5,30.02,North,7,12.0,13.6,65,0.00,,,0.00,CWS Microserver 1.4,2013-07-23 15:25:00,
2013-07-23 10:30:00,64.9,52.5,30.03,North,11,7.0,14.9,64,0.00,,,0.00,CWS Microserver 1.4,2013-07-23 15:30:00,
2013-07-23 10:40:00,65.3,52.4,30.03,NE,36,7.0,11.1,63,0.00,,,0.00,CWS Microserver 1.4,2013-07-23 15:40:00,
2013-07-23 10:45:00,65.1,53.7,30.03,NE,40,6.1,11.9,66,0.00,,,0.00,CWS Microserver 1.4,2013-07-23 15:45:00,
2013-07-23 10:50:00,64.9,53.6,30.03,NE,55,3.9,11.9,67,0.00,,,0.00,CWS Microserver 1.4,2013-07-23 15:50:00,
2013-07-23 10:55:00,64.7,53.7,30.02,East,96,2.4,10.6,67,0.00,,,0.00,CWS Microserver 1.4,2013-07-23 15:55:00,
2013-07-23 11:00:00,64.7,53.8,30.02,NE,39,6.8,8.9,67,0.00,,,0.00,CWS Microserver 1.4,2013-07-23 16:00:00,
2013-07-23 11:05:00,64.7,54.2,30.02,NE,52,6.6,9.1,68,0.00,,,0.00,CWS Microserver 1.4,2013-07-23 16:05:00,
2013-07-23 11:10:00,64.7,53.9,30.02,NNE,21,7.7,10.0,68,0.00,,,0.00,CWS Microserver 1.4,2013-07-23 16:10:00,
2013-07-23 11:15:00,65.1,54.2,30.03,NNE,24,6.0,10.0,67,0.00,,,0.00,CWS Microserver 1.4,2013-07-23 16:15:00,
2013-07-23 11:20:00,65.4,54.4,30.02,NNE,15,11.7,11.7,67,0.00,,,0.00,CWS Microserver 1.4,2013-07-23 16:20:00,
2013-07-23 11:25:00,65.3,54.1,30.02,ENE,58,7.7,12.6,67,0.00,,,0.00,CWS Microserver 1.4,2013-07-23 16:25:00,
2013-07-23 11:30:00,65.8,53.7,30.02,NNE,23,6.2,12.6,65,0.00,,,0.00,CWS Microserver 1.4,2013-07-23 16:30:00,
2013-07-23 11:35:00,65.8,53.0,30.02,NE,42,4.4,10.7,63,0.00,,,0.00,CWS Microserver 1.4,2013-07-23 16:35:00,
2013-07-23 11:40:00,66.0,53.9,30.02,NE,42,6.6,10.7,65,0.00,,,0.00,CWS Microserver 1.4,2013-07-23 16:40:00,
2013-07-23 11:45:00,67.2,52.1,30.02,NE,45,12.6,13.4,58,0.00,,,0.00,CWS Microserver 1.4,2013-07-23 16:45:00,
2013-07-23 11:50:00,67.8,52.5,30.03,NE,37,10.8,13.7,58,0.00,,,0.00,CWS Microserver 1.4,2013-07-23 16:50:00,
2013-07-23 11:55:00,67.4,51.4,30.03,NE,46,10.6,14.4,56,0.00,,,0.00,CWS Microserver 1.4,2013-07-23 16:55:00,
2013-07-23 12:00:00,67.6,52.2,30.03,NE,55,11.4,14.4,57,0.00,,,0.00,CWS Microserver 1.4,2013-07-23 17:00:00,
2013-07-23 12:05:00,67.1,52.8,30.03,NE,41,9.1,13.1,60,0.00,,,0.00,CWS Microserver 1.4,2013-07-23 17:05:00,
2013-07-23 12:10:00,66.9,53.5,30.03,NNE,21,8.9,12.2,62,0.00,,,0.00,CWS Microserver 1.4,2013-07-23 17:10:00,
2013-07-23 12:15:00,67.1,52.4,30.03,North,354,6.1,12.7,59,0.00,,,0.00,CWS Microserver 1.4,2013-07-23 17:15:00,
2013-07-23 12:20:00,67.1,53.8,30.04,NNE,25,10.5,14.4,62,0.00,,,0.00,CWS Microserver 1.4,2013-07-23 17:20:00,
2013-07-23 12:25:00,66.9,52.6,30.04,North,11,7.5,14.4,60,0.00,,,0.00,CWS Microserver 1.4,2013-07-23 17:25:00,
2013-07-23 12:30:00,66.7,53.1,30.03,NW,322,1.4,13.0,61,0.00,,,0.00,CWS Microserver 1.4,2013-07-23 17:30:00,
2013-07-23 12:35:00,66.9,52.9,30.03,North,359,4.8,10.7,60,0.00,,,0.00,CWS Microserver 1.4,2013-07-23 17:35:00,
2013-07-23 12:40:00,66.9,53.4,30.03,NNE,17,4.5,8.5,61,0.00,,,0.00,CWS Microserver 1.4,2013-07-23 17:40:00,
2013-07-23 12:45:00,67.1,49.6,30.03,NNE,24,8.9,9.7,53,0.00,,,0.00,CWS Microserver 1.4,2013-07-23 17:45:00,
2013-07-23 12:50:00,67.2,51.9,30.03,NNE,22,8.5,9.7,58,0.00,,,0.00,CWS Microserver 1.4,2013-07-23 17:50:00,
2013-07-23 12:55:00,66.9,52.2,30.03,NNE,32,4.3,10.1,59,0.00,,,0.00,CWS Microserver 1.4,2013-07-23 17:55:00,
2013-07-23 13:00:00,66.7,53.4,30.02,NE,45,8.7,11.4,62,0.00,,,0.00,CWS Microserver 1.4,2013-07-23 18:00:00,
2013-07-23 13:05:00,66.5,53.7,30.03,NE,43,8.2,11.4,63,0.00,,,0.00,CWS Microserver 1.4,2013-07-23 18:05:00,
2013-07-23 13:10:00,66.2,54.0,30.03,NNE,14,10.3,10.9,64,0.00,,,0.00,CWS Microserver 1.4,2013-07-23 18:10:00,
2013-07-23 13:15:00,66.0,53.6,30.03,NNE,14,7.1,11.5,64,0.00,,,0.00,CWS Microserver 1.4,2013-07-23 18:15:00,
2013-07-23 13:25:00,66.9,53.9,30.02,NNE,31,7.7,9.6,63,0.00,,,0.00,CWS Microserver 1.4,2013-07-23 18:25:00,
2013-07-23 13:30:00,66.7,53.5,30.02,NNE,16,5.0,9.7,62,0.00,,,0.00,CWS Microserver 1.4,2013-07-23 18:30:00,
2013-07-23 13:35:00,67.2,52.7,30.03,North,357,3.2,9.7,59,0.00,,,0.00,CWS Microserver 1.4,2013-07-23 18:35:00,
2013-07-23 13:40:00,67.4,52.6,30.02,ENE,72,7.0,8.8,59,0.00,,,0.00,CWS Microserver 1.4,2013-07-23 18:40:00,
2013-07-23 13:45:00,66.9,52.7,30.02,NNE,15,6.1,10.7,60,0.00,,,0.00,CWS Microserver 1.4,2013-07-23 18:45:00,
2013-07-23 13:50:00,66.9,53.5,30.02,NE,52,4.5,10.7,62,0.00,,,0.00,CWS Microserver 1.4,2013-07-23 18:50:00,
2013-07-23 13:55:00,66.9,52.7,30.02,NE,41,6.8,10.8,60,0.00,,,0.00,CWS Microserver 1.4,2013-07-23 18:55:00,
2013-07-23 14:00:00,66.9,48.5,30.02,North,8,6.4,10.8,51,0.00,,,0.00,CWS Microserver 1.4,2013-07-23 19:00:00,
2013-07-23 14:15:00,66.7,52.7,30.02,ENE,62,7.4,10.0,60,0.00,,,0.00,CWS Microserver 1.4,2013-07-23 19:15:00,
2013-07-23 14:20:00,66.2,54.1,30.02,ENE,61,5.3,10.1,65,0.01,,,0.01,CWS Microserver 1.4,2013-07-23 19:20:00,
2013-07-23 14:25:00,66.2,54.3,30.02,North,8,4.6,10.8,65,0.01,,,0.01,CWS Microserver 1.4,2013-07-23 19:25:00,
2013-07-23 14:30:00,66.5,52.6,30.02,NNE,27,5.3,12.9,61,0.01,,,0.01,CWS Microserver 1.4,2013-07-23 19:30:00,
2013-07-23 14:35:00,66.9,53.6,30.02,NE,40,9.1,12.9,62,0.01,,,0.01,CWS Microserver 1.4,2013-07-23 19:35:00,
2013-07-23 14:40:00,67.2,53.9,30.02,NNE,33,4.0,11.2,62,0.01,,,0.01,CWS Microserver 1.4,2013-07-23 19:40:00,
2013-07-23 14:45:00,67.6,52.9,30.02,NNW,337,2.2,11.2,59,0.01,,,0.01,CWS Microserver 1.4,2013-07-23 19:45:00,
2013-07-23 14:50:00,67.4,53.0,30.02,NNW,336,8.3,9.2,60,0.01,,,0.01,CWS Microserver 1.4,2013-07-23 19:50:00,
2013-07-23 14:55:00,67.6,54.0,30.02,NNE,27,5.5,9.3,61,0.01,,,0.01,CWS Microserver 1.4,2013-07-23 19:55:00,
2013-07-23 15:00:00,67.4,53.5,30.02,North,6,10.2,10.6,61,0.01,,,0.01,CWS Microserver 1.4,2013-07-23 20:00:00,
2013-07-23 15:05:00,67.6,53.4,30.02,NNE,21,5.1,10.6,60,0.01,,,0.01,CWS Microserver 1.4,2013-07-23 20:05:00,
2013-07-23 15:20:00,69.4,53.7,30.02,WSW,239,1.3,9.8,57,0.00,,,0.01,CWS Microserver 1.4,2013-07-23 20:20:00,
2013-07-23 15:25:00,69.4,52.9,30.02,NNE,32,5.7,11.6,55,0.00,,,0.01,CWS Microserver 1.4,2013-07-23 20:25:00,
2013-07-23 15:30:00,69.0,53.7,30.02,NNE,30,5.3,11.6,58,0.00,,,0.01,CWS Microserver 1.4,2013-07-23 20:30:00,
2013-07-23 15:40:00,69.4,53.2,30.01,North,10,7.9,12.7,56,0.00,,,0.01,CWS Microserver 1.4,2013-07-23 20:40:00,
2013-07-23 15:45:00,69.9,53.4,30.01,North,352,8.2,12.7,55,0.00,,,0.01,CWS Microserver 1.4,2013-07-23 20:45:00,
2013-07-23 15:55:00,70.7,53.0,30.01,NNE,32,7.0,13.1,53,0.00,,,0.01,CWS Microserver 1.4,2013-07-23 20:55:00,
2013-07-23 16:00:00,69.9,53.0,30.01,NNE,24,6.8,12.8,55,0.00,,,0.01,CWS Microserver 1.4,2013-07-23 21:00:00,
2013-07-23 16:10:00,70.5,53.0,30.01,NNW,348,5.2,13.4,53,0.00,,,0.01,CWS Microserver 1.4,2013-07-23 21:10:00,
2013-07-23 16:15:00,70.5,53.4,30.01,North,357,9.1,13.6,54,0.00,,,0.01,CWS Microserver 1.4,2013-07-23 21:15:00,
2013-07-23 16:20:00,70.7,52.9,30.01,North,349,4.5,13.6,53,0.00,,,0.01,CWS Microserver 1.4,2013-07-23 21:20:00,
2013-07-23 16:25:00,70.8,52.4,30.01,North,3,8.1,12.0,52,0.00,,,0.01,CWS Microserver 1.4,2013-07-23 21:25:00,
2013-07-23 16:30:00,71.0,53.1,30.01,NNW,342,4.4,12.0,53,0.00,,,0.01,CWS Microserver 1.4,2013-07-23 21:30:00,
2013-07-23 16:35:00,71.0,53.8,30.01,NNE,23,10.5,10.8,54,0.00,,,0.01,CWS Microserver 1.4,2013-07-23 21:35:00,
2013-07-23 16:40:00,71.4,52.6,30.00,North,357,9.8,14.6,51,0.00,,,0.01,CWS Microserver 1.4,2013-07-23 21:40:00,
2013-07-23 16:50:00,71.9,52.4,30.00,North,1,8.8,16.4,50,0.00,,,0.01,CWS Microserver 1.4,2013-07-23 21:50:00,
2013-07-23 16:55:00,72.1,52.9,30.00,NNE,18,10.6,15.9,50,0.00,,,0.01,CWS Microserver 1.4,2013-07-23 21:55:00,
2013-07-23 17:00:00,72.3,52.7,30.00,NNE,26,8.5,15.3,50,0.00,,,0.01,CWS Microserver 1.4,2013-07-23 22:00:00,
2013-07-23 17:05:00,72.5,53.3,30.00,North,357,10.1,12.5,51,0.00,,,0.01,CWS Microserver 1.4,2013-07-23 22:05:00,
2013-07-23 17:10:00,71.9,52.5,30.00,NE,34,8.6,13.0,50,0.00,,,0.01,CWS Microserver 1.4,2013-07-23 22:10:00,
2013-07-23 17:15:00,72.8,53.0,30.00,North,359,12.2,14.2,50,0.00,,,0.01,CWS Microserver 1.4,2013-07-23 22:15:00,
2013-07-23 17:20:00,72.3,52.1,30.00,North,1,7.9,14.2,49,0.00,,,0.01,CWS Microserver 1.4,2013-07-23 22:20:00,
2013-07-23 17:25:00,73.0,53.1,30.00,NNE,31,9.0,13.7,49,0.00,,,0.01,CWS Microserver 1.4,2013-07-23 22:25:00,
2013-07-23 17:30:00,72.1,53.0,30.00,NNE,17,10.2,11.4,51,0.00,,,0.01,CWS Microserver 1.4,2013-07-23 22:30:00,
2013-07-23 17:35:00,72.6,53.6,30.00,NNW,346,5.2,12.7,51,0.00,,,0.01,CWS Microserver 1.4,2013-07-23 22:35:00,
2013-07-23 17:40:00,72.8,52.7,30.00,North,6,7.3,12.7,49,0.00,,,0.01,CWS Microserver 1.4,2013-07-23 22:40:00,
2013-07-23 17:45:00,72.3,52.3,30.00,NNE,20,5.9,12.6,49,0.00,,,0.01,CWS Microserver 1.4,2013-07-23 22:45:00,
2013-07-23 17:50:00,71.9,52.3,30.00,NNE,22,9.1,11.4,50,0.00,,,0.01,CWS Microserver 1.4,2013-07-23 22:50:00,
2013-07-23 17:55:00,72.6,53.3,30.00,NE,36,6.5,11.4,50,0.00,,,0.01,CWS Microserver 1.4,2013-07-23 22:55:00,
2013-07-23 18:00:00,72.3,52.5,30.00,North,10,4.1,10.5,49,0.00,,,0.01,CWS Microserver 1.4,2013-07-23 23:00:00,
2013-07-23 18:10:00,72.3,52.7,30.00,North,11,4.1,8.5,50,0.00,,,0.01,CWS Microserver 1.4,2013-07-23 23:10:00,
2013-07-23 18:20:00,72.6,53.1,30.00,NNE,18,7.8,9.1,50,0.00,,,0.01,CWS Microserver 1.4,2013-07-23 23:20:00,
2013-07-23 18:25:00,72.5,52.0,30.00,NE,39,5.5,9.1,48,0.00,,,0.01,CWS Microserver 1.4,2013-07-23 23:25:00,
2013-07-23 18:30:00,72.5,52.5,30.01,North,2,5.2,8.1,49,0.00,,,0.01,CWS Microserver 1.4,2013-07-23 23:30:00,
2013-07-23 18:35:00,73.0,52.1,30.00,NE,35,5.6,8.6,48,0.00,,,0.01,CWS Microserver 1.4,2013-07-23 23:35:00,
2013-07-23 18:45:00,73.2,52.2,30.01,North,2,5.1,7.1,47,0.00,,,0.01,CWS Microserver 1.4,2013-07-23 23:45:00,
2013-07-23 18:50:00,73.0,53.7,30.01,NNE,12,6.4,7.7,50,0.00,,,0.01,CWS Microserver 1.4,2013-07-23 23:50:00,
2013-07-23 19:00:00,73.0,52.9,30.01,NNE,33,5.3,8.2,49,0.00,,,0.01,CWS Microserver 1.4,2013-07-24 00:00:00,
2013-07-23 19:10:00,72.3,54.0,30.01,NNE,30,6.1,10.4,52,0.00,,,0.01,CWS Microserver 1.4,2013-07-24 00:10:00,
2013-07-23 19:20:00,71.7,53.6,30.01,NNE,17,5.5,7.4,53,0.00,,,0.01,CWS Microserver 1.4,2013-07-24 00:20:00,
2013-07-23 19:25:00,71.6,53.5,30.01,North,11,5.7,6.8,52,0.00,,,0.01,CWS Microserver 1.4,2013-07-24 00:25:00,
2013-07-23 19:30:00,71.7,54.2,30.01,NNE,14,6.8,6.8,54,0.00,,,0.01,CWS Microserver 1.4,2013-07-24 00:30:00,
2013-07-23 19:35:00,71.6,54.9,30.01,NNE,16,5.5,7.5,55,0.00,,,0.01,CWS Microserver 1.4,2013-07-24 00:35:00,
2013-07-23 19:40:00,71.6,55.1,30.01,NNE,21,3.6,7.5,56,0.00,,,0.01,CWS Microserver 1.4,2013-07-24 00:40:00,
2013-07-23 19:45:00,71.4,54.1,30.01,NNE,14,3.0,7.2,54,0.00,,,0.01,CWS Microserver 1.4,2013-07-24 00:45:00,
2013-07-23 19:50:00,71.0,54.6,30.01,NNE,19,4.8,7.2,56,0.00,,,0.01,CWS Microserver 1.4,2013-07-24 00:50:00,
2013-07-23 19:55:00,70.5,54.4,30.01,NNE,29,6.1,6.9,56,0.00,,,0.01,CWS Microserver 1.4,2013-07-24 00:55:00,
2013-07-23 20:00:00,70.1,54.7,30.01,NNE,21,4.2,7.3,58,0.00,,,0.01,CWS Microserver 1.4,2013-07-24 01:00:00,
2013-07-23 20:05:00,69.6,55.3,30.01,NNE,25,4.0,7.3,60,0.00,,,0.01,CWS Microserver 1.4,2013-07-24 01:05:00,
2013-07-23 20:10:00,69.4,55.2,30.01,NNE,22,3.9,5.7,60,0.00,,,0.01,CWS Microserver 1.4,2013-07-24 01:10:00,
2013-07-23 20:15:00,69.2,55.5,30.01,NNE,20,4.1,5.0,61,0.00,,,0.01,CWS Microserver 1.4,2013-07-24 01:15:00,
2013-07-23 20:25:00,68.9,55.2,30.01,NNE,21,4.4,4.6,61,0.00,,,0.01,CWS Microserver 1.4,2013-07-24 01:25:00,
2013-07-23 20:35:00,68.5,55.5,30.01,NNE,21,3.6,4.6,63,0.00,,,0.01,CWS Microserver 1.4,2013-07-24 01:35:00,
2013-07-23 20:40:00,68.3,55.4,30.01,NNE,20,4.1,4.4,63,0.00,,,0.01,CWS Microserver 1.4,2013-07-24 01:40:00,
2013-07-23 20:45:00,68.1,55.3,30.01,NNE,19,4.7,5.0,63,0.00,,,0.01,CWS Microserver 1.4,2013-07-24 01:45:00,
2013-07-23 20:50:00,68.1,55.5,30.01,North,358,2.8,5.2,64,0.00,,,0.01,CWS Microserver 1.4,2013-07-24 01:50:00,
2013-07-23 20:55:00,67.6,55.7,30.01,North,11,1.3,5.2,65,0.00,,,0.01,CWS Microserver 1.4,2013-07-24 01:55:00,
2013-07-23 21:00:00,67.2,55.1,30.01,North,350,1.2,4.1,65,0.00,,,0.01,CWS Microserver 1.4,2013-07-24 02:00:00,
2013-07-23 21:05:00,67.1,55.2,30.01,North,6,3.3,3.6,65,0.00,,,0.01,CWS Microserver 1.4,2013-07-24 02:05:00,
2013-07-23 21:10:00,67.1,55.1,30.01,NNW,340,1.7,4.0,65,0.00,,,0.01,CWS Microserver 1.4,2013-07-24 02:10:00,
2013-07-23 21:15:00,66.9,54.8,30.01,North,358,2.6,4.0,65,0.00,,,0.01,CWS Microserver 1.4,2013-07-24 02:15:00,
2013-07-23 21:20:00,66.7,54.7,30.01,North,0,1.9,3.8,65,0.00,,,0.01,CWS Microserver 1.4,2013-07-24 02:20:00,
2013-07-23 21:25:00,66.5,54.8,30.01,NNE,12,3.1,3.8,66,0.00,,,0.01,CWS Microserver 1.4,2013-07-24 02:25:00,
2013-07-23 21:30:00,66.2,54.9,30.01,North,6,2.4,3.8,67,0.00,,,0.01,CWS Microserver 1.4,2013-07-24 02:30:00,
2013-07-23 21:40:00,65.8,54.8,30.02,NNE,18,4.4,4.8,67,0.00,,,0.01,CWS Microserver 1.4,2013-07-24 02:40:00,
2013-07-23 21:50:00,66.0,54.9,30.02,NNE,25,3.5,5.1,67,0.00,,,0.01,CWS Microserver 1.4,2013-07-24 02:50:00,
2013-07-23 21:55:00,65.8,55.2,30.03,WNW,300,0.3,4.7,68,0.00,,,0.01,CWS Microserver 1.4,2013-07-24 02:55:00,
2013-07-23 22:05:00,65.3,55.2,30.03,North,1,1.6,3.3,69,0.00,,,0.01,CWS Microserver 1.4,2013-07-24 03:05:00,
2013-07-23 22:10:00,65.1,54.8,30.03,NNW,345,1.9,2.9,69,0.00,,,0.01,CWS Microserver 1.4,2013-07-24 03:10:00,
2013-07-23 22:20:00,64.9,54.9,30.03,NNW,344,1.3,2.4,70,0.00,,,0.01,CWS Microserver 1.4,2013-07-24 03:20:00,
2013-07-23 22:25:00,64.9,54.8,30.03,NNW,332,1.6,2.4,69,0.00,,,0.01,CWS Microserver 1.4,2013-07-24 03:25:00,
2013-07-23 22:30:00,64.5,54.6,30.03,NNW,341,2.1,2.1,70,0.00,,,0.01,CWS Microserver 1.4,2013-07-24 03:30:00,
2013-07-23 22:35:00,64.4,54.6,30.03,NNW,333,2.0,2.2,70,0.00,,,0.01,CWS Microserver 1.4,2013-07-24 03:35:00,
2013-07-23 22:40:00,64.4,54.5,30.03,NNW,330,1.9,2.2,70,0.00,,,0.01,CWS Microserver 1.4,2013-07-24 03:40:00,
2013-07-23 22:45:00,64.4,54.4,30.03,NNW,332,2.5,2.7,70,0.00,,,0.01,CWS Microserver 1.4,2013-07-24 03:45:00,
2013-07-23 22:50:00,64.2,54.6,30.03,West,266,0.8,2.7,71,0.00,,,0.01,CWS Microserver 1.4,2013-07-24 03:50:00,
2013-07-23 22:55:00,63.6,54.4,30.03,WNW,290,1.1,2.5,72,0.00,,,0.01,CWS Microserver 1.4,2013-07-24 03:55:00,
2013-07-23 23:00:00,63.3,54.3,30.03,NNW,333,1.6,2.0,72,0.00,,,0.01,CWS Microserver 1.4,2013-07-24 04:00:00,
2013-07-23 23:05:00,62.9,54.1,30.03,NW,319,2.5,2.8,73,0.00,,,0.01,CWS Microserver 1.4,2013-07-24 04:05:00,
2013-07-23 23:10:00,62.2,53.9,30.03,NW,326,2.1,2.8,74,0.00,,,0.01,CWS Microserver 1.4,2013-07-24 04:10:00,
2013-07-23 23:15:00,61.7,53.7,30.03,NW,316,2.9,3.2,75,0.00,,,0.01,CWS Microserver 1.4,2013-07-24 04:15:00,
2013-07-23 23:20:00,61.5,53.7,30.03,WNW,284,1.6,3.4,75,0.00,,,0.01,CWS Microserver 1.4,2013-07-24 04:20:00,
2013-07-23 23:25:00,61.3,53.8,30.03,WNW,290,2.4,3.4,76,0.00,,,0.01,CWS Microserver 1.4,2013-07-24 04:25:00,
2013-07-23 23:30:00,61.1,53.8,30.03,WNW,284,2.3,2.9,77,0.00,,,0.01,CWS Microserver 1.4,2013-07-24 04:30:00,
2013-07-23 23:35:00,60.9,53.4,30.04,West,276,2.6,3.0,76,0.00,,,0.01,CWS Microserver 1.4,2013-07-24 04:35:00,
2013-07-23 23:40:00,60.8,53.6,30.04,WNW,291,2.3,3.1,77,0.00,,,0.01,CWS Microserver 1.4,2013-07-24 04:40:00,
2013-07-23 23:45:00,61.1,53.7,30.04,WNW,288,2.6,3.1,76,0.00,,,0.01,CWS Microserver 1.4,2013-07-24 04:45:00,
2013-07-23 23:50:00,61.3,53.8,30.04,WNW,293,2.1,2.7,76,0.00,,,0.00,CWS Microserver 1.4,2013-07-24 04:50:00,
2013-07-23 23:55:00,61.1,53.8,30.04,West,276,1.7,2.7,76,0.00,,,0.00,CWS Microserver 1.4,2013-07-24 04:55:00,